Orbital Elements at Epoch 2459200.5 (2020-Dec-17.0) TDB
Reference: JPL 21 (heliocentric ecliptic J2000)
Element | Value | Uncertainty (1-sigma) | Units |
e | .1874334285871929 | 8.4235e-08 | |
a | 2.471981559277407 | 1.6988e-08 | au |
q | 2.008649580217728 | 1.9881e-07 | au |
i | 2.934948122701145 | 5.2631e-06 | deg |
node | 57.1481523783737 | 7.9602e-05 | deg |
peri | 288.6702612990605 | 8.3547e-05 | deg |
M | 260.8986548081497 | 3.5671e-05 | deg |
tp | 2459591.289886361111 (2022-Jan-11.78988636) | 0.0001443 | TDB |
period | 1419.600902668364 3.89 | 1.4634e-05 4.007e-08 | d yr |
n | .2535924000353362 | 2.6141e-09 | deg/d |
Q | 2.935313538337086 | 2.0172e-08 | au |
|
| | Orbit Determination Parameters
Additional Information
|